Kenosha, WI

6:28 AM CDT on May 27, 2017 (GMT -0500)
Kenosha Regional

Weather History for KENW - October, 2011

Change the Weather History Date:

Thursday, October 20, 2011

  Actual Average Record
Temperature  
Mean Temperature 42 °F -  
Max Temperature 45 °F 56 °F 86 °F (1953)
Min Temperature 41 °F 40 °F 25 °F (1952)
Degree Days  
Heating Degree Days 22    
Moisture  
Dew Point 37 °F    
Average Humidity 78    
Maximum Humidity 86    
Minimum Humidity 71    
Precipitation  
Precipitation 0.15 in - - ()
Sea Level Pressure  
Sea Level Pressure 29.66 in    
Wind  
Wind Speed 16 mph (NW)    
Max Wind Speed 21 mph    
Max Gust Speed 30 mph    
Visibility 8 miles    
Events Rain    
Averages and records for this station are not official NWS values.
T = Trace of Precipitation, MM = Missing Value Source: NWS Daily Summary

Daily Weather History Graph

Daily Weather History Graph

Search for Another Location

Airport or City:

Trip Planner

Search our weather history database for the weather conditions in past years. The results will help you decide how hot, cold, wet, or windy it might be!

Date:

Astronomy

Oct. 20, 2011 Rise Set
Actual Time 7:10 AM CDT 6:01 PM CDT
Civil Twilight 6:41 AM CDT 6:30 PM CDT
Nautical Twilight 6:08 AM CDT 7:03 PM CDT
Astronomical Twilight 5:36 AM CDT 7:35 PM CDT
Moon No Moon Rise 2:19 PM CDT (10/20)
Length of Visible Light 11h 48m
Length of Day
10h 51m
Last Quarter, 44% of the Moon is Illuminated
Oct 20
Last Quarter
Oct 26
New
Nov 2
First Quarter
Nov 10
Full
Nov 18
Last Quarter

Hourly Weather History & Observations

Time (CDT) Temp. Windchill Dew Point Humidity Pressure Visibility Wind Dir Wind Speed Gust Speed Precip Events Conditions
12:53 AM 43.0 °F 34.8 °F 39.0 °F 86% 29.57 in 4.0 mi North 18.4 mph 28.8 mph 0.01 in Rain Light Rain
1:53 AM 42.1 °F 33.1 °F 37.9 °F 85% 29.55 in 5.0 mi NNW 20.7 mph 29.9 mph 0.01 in Rain Light Rain
2:53 AM 43.0 °F 35.4 °F 37.0 °F 80% 29.54 in 10.0 mi NNW 16.1 mph 26.5 mph 0.01 in   Overcast
3:53 AM 42.1 °F 33.1 °F 37.0 °F 82% 29.54 in 7.0 mi NNW 20.7 mph 27.6 mph 0.01 in Rain Light Rain
4:53 AM 42.1 °F 33.3 °F 37.0 °F 82% 29.54 in 5.0 mi NNW 19.6 mph 29.9 mph 0.03 in Rain Light Rain
5:53 AM 41.0 °F 32.2 °F 37.0 °F 86% 29.55 in 10.0 mi NNW 18.4 mph 27.6 mph 0.01 in Rain Light Rain
6:53 AM 41.0 °F 33.1 °F 36.0 °F 82% 29.55 in 5.0 mi NNW 15.0 mph 29.9 mph 0.03 in Rain Light Rain
7:53 AM 42.1 °F 33.6 °F 37.0 °F 82% 29.56 in 5.0 mi NNW 18.4 mph 27.6 mph 0.01 in Rain Light Rain
8:53 AM 42.1 °F 34.2 °F 37.9 °F 85% 29.57 in 7.0 mi NW 16.1 mph 25.3 mph 0.02 in Rain Light Rain
9:53 AM 43.0 °F 35.4 °F 37.9 °F 82% 29.59 in 10.0 mi NW 16.1 mph 25.3 mph 0.00 in Rain Light Rain
10:53 AM 43.0 °F 35.7 °F 37.0 °F 80% 29.60 in 10.0 mi NW 15.0 mph 25.3 mph 0.00 in   Overcast
11:53 AM 44.1 °F 36.2 °F 37.0 °F 76% 29.63 in 10.0 mi NNW 18.4 mph 26.5 mph N/A   Overcast
12:53 PM 44.1 °F 35.9 °F 37.0 °F 76% 29.64 in 7.0 mi NNW 19.6 mph 25.3 mph N/A   Overcast
1:53 PM 44.1 °F 37.1 °F 36.0 °F 73% 29.66 in 10.0 mi NW 15.0 mph 23.0 mph N/A   Overcast
2:53 PM 44.1 °F 36.2 °F 36.0 °F 73% 29.68 in 10.0 mi NW 18.4 mph 24.2 mph 0.01 in Rain Light Rain
3:53 PM 44.1 °F 36.8 °F 36.0 °F 73% 29.71 in 6.0 mi NW 16.1 mph 25.3 mph 0.00 in Rain Light Rain
4:53 PM 44.1 °F 37.7 °F 36.0 °F 73% 29.73 in 10.0 mi WNW 12.7 mph - 0.00 in   Overcast
5:53 PM 44.1 °F 37.7 °F 35.1 °F 71% 29.77 in 10.0 mi WNW 12.7 mph 20.7 mph N/A   Overcast
7:53 PM 44.1 °F 40.1 °F 37.0 °F 76% 29.82 in 10.0 mi WNW 6.9 mph - N/A   Overcast
8:53 PM 44.1 °F 40.1 °F 36.0 °F 73% 29.83 in 10.0 mi WNW 6.9 mph - N/A   Overcast
9:53 PM 44.1 °F 40.8 °F 35.1 °F 71% 29.86 in 10.0 mi NW 5.8 mph - N/A   Partly Cloudy
10:53 PM 44.1 °F 40.8 °F 35.1 °F 71% 29.88 in 10.0 mi NW 5.8 mph - N/A   Overcast
11:53 PM 43.0 °F 39.5 °F 35.1 °F 74% 29.89 in 10.0 mi WNW 5.8 mph - N/A   Overcast